Tracking 31013 objects as of 10-Jul-2025
HD Live streaming from Space Station
objects crossing your sky now

XTAR-EUR

Track XTAR-EUR now!
XTAR-EUR is classified as:


NORAD ID: 28542
Int'l Code: 2005-005A
Perigee: 35,772.8 km
Apogee: 35,816.0 km
Inclination: 3.4 °
Period: 1,436.1 minutes
Semi major axis: 42165 km
RCS: 6.3095 m2 (large)
Launch date: February 12, 2005
Source: United States (US)
Launch site: FRENCH GUIANA (FRGUI)

X-band; designed to be compatible with U.S. and NATO SATCOM systems.
Your satellite tracking list
Your tracking list is empty




NASA's NSSDC Master Catalog

Two Line Element Set (TLE):
1 28542U 05005A   25190.34488508  .00000161  00000-0  00000-0 0  9996
2 28542   3.4475  81.0093 0005124  19.4014 340.2936  1.00269553 74759
Source of the keplerian elements: AFSPC